Zurück zum Katalog

STARLINK-4734

AktivKommunikationVLEO
NORAD 53790·PAYLOAD·🇺🇸 United States

Gestartet Sep 11, 2022 von Cape Canaveral Space Force Station

Loading…

Nächste Überflüge (nächste 24 Stunden)

TLE

AktuellSource: CelesTrak SupGP

Epoche: Sep 14, 2026, 14:01 UTC

1 53790C 22111T   26257.58451389  .00061602  00000+0  62394-3 0  2574
2 53790  53.1573 129.0622 0001335  95.5266 356.0763 15.64585765    10

Verfolge STARLINK-4734 in Echtzeit mit AllMySat

Download on the App Store